Weather History for Truth Or Consequences, NM

Change the Weather History Date:

Sunday, November 18, 2012

  Actual Average Record
Temperature  
Mean Temperature 56 °F -  
Max Temperature 65 °F 61 °F 73 °F (1999)
Min Temperature 46 °F 35 °F 23 °F (2014)
Degree Days  
Heating Degree Days 9    
Month to date heating degree days 191  
Since 1 July heating degree days 277  
Growing Degree Days 5 (Base 50)    
Moisture  
Dew Point 40 °F    
Average Humidity 64    
Maximum Humidity 93    
Minimum Humidity 34    
Precipitation  
Precipitation 0.01 in - 0.01 in (2012)
Month to date precipitation 0.01  
Year to date precipitation 2.60  
Sea Level Pressure  
Sea Level Pressure 30.04 in    
Wind  
Wind Speed 6 mph (SSE)    
Max Wind Speed 14 mph    
Max Gust Speed 17 mph    
Visibility 10 miles    
Events Rain    
T = Trace of Precipitation, MM = Missing Value Source: NWS Daily Summary

Daily Weather History Graph

Daily Weather History Graph

Search for Another Location

Airport:

Trip Planner

Search our weather history database for the weather conditions in past years. The results will help you decide how hot, cold, wet, or windy it might be!

Date:

Astronomy

Nov. 18, 2012 Rise Set
Actual Time 6:43 AM MST 5:05 PM MST
Civil Twilight 6:16 AM MST 5:31 PM MST
Nautical Twilight 5:46 AM MST 6:01 PM MST
Astronomical Twilight 5:17 AM MST 6:31 PM MST
Moon 11:15 AM MST (11/18) 10:23 PM MST (11/18)
Length of Visible Light 11h 14m
Length of Day
10h 21m
Waxing Crescent, 31% of the Moon is Illuminated
Nov 18
Waxing Crescent
Nov 20
First Quarter
Nov 28
Full
Dec 6
Last Quarter
Dec 13
New

Hourly Weather History & Observations

Time (MST) Temp. Windchill Dew Point Humidity Pressure Visibility Wind Dir Wind Speed Gust Speed Precip Events Conditions
12:53 AM 48.9 °F - 23.0 °F 36% 30.01 in 10.0 mi WNW 4.6 mph - N/A   Clear
1:53 AM 52.0 °F - 27.0 °F 38% 30.01 in 10.0 mi SW 6.9 mph - N/A   Mostly Cloudy
2:53 AM 51.1 °F - 37.9 °F 61% 29.99 in 10.0 mi WNW 4.6 mph - 0.00 in   Overcast
3:53 AM 52.0 °F - 37.9 °F 59% 29.99 in 10.0 mi NW 4.6 mph - 0.00 in   Overcast
4:53 AM 50.0 °F - 37.0 °F 61% 30.01 in 10.0 mi NNE 3.5 mph - N/A   Overcast
5:53 AM 48.9 °F - 37.9 °F 66% 30.01 in 10.0 mi East 6.9 mph - 0.00 in Rain Light Rain
6:53 AM 46.9 °F - 44.1 °F 90% 30.05 in 10.0 mi East 3.5 mph - 0.00 in Rain Light Rain
7:53 AM 48.0 °F - 45.0 °F 89% 30.06 in 10.0 mi NE 3.5 mph - 0.00 in   Overcast
8:53 AM 50.0 °F - 46.0 °F 86% 30.08 in 10.0 mi NNE 3.5 mph - 0.01 in   Clear
9:53 AM 51.1 °F - 45.0 °F 80% 30.10 in 10.0 mi ENE 4.6 mph - N/A   Clear
10:53 AM 54.0 °F - 46.0 °F 75% 30.09 in 10.0 mi East 3.5 mph - N/A   Partly Cloudy
11:53 AM 57.0 °F - 45.0 °F 64% 30.05 in 10.0 mi SSE 9.2 mph - N/A   Clear
12:53 PM 60.1 °F - 46.0 °F 60% 30.01 in 10.0 mi South 10.4 mph - N/A   Clear
1:53 PM 62.1 °F - 44.1 °F 52% 29.98 in 10.0 mi SSE 8.1 mph - N/A   Clear
2:53 PM 64.9 °F - 39.0 °F 39% 29.96 in 10.0 mi South 12.7 mph - N/A   Clear
3:53 PM 64.0 °F - 39.9 °F 41% 29.97 in 10.0 mi SE 9.2 mph - N/A   Clear
4:53 PM 62.1 °F - 39.9 °F 44% 29.99 in 10.0 mi South 10.4 mph - N/A   Clear
5:53 PM 57.9 °F - 42.1 °F 56% 30.01 in 10.0 mi SE 9.2 mph - N/A   Clear
6:53 PM 55.9 °F - 43.0 °F 62% 30.05 in 10.0 mi SSW 10.4 mph - N/A   Clear
7:53 PM 53.1 °F - 42.1 °F 66% 30.07 in 10.0 mi WSW 8.1 mph - N/A   Clear
8:53 PM 51.1 °F - 41.0 °F 68% 30.09 in 10.0 mi WSW 4.6 mph - N/A   Clear
9:53 PM 48.0 °F - 39.0 °F 71% 30.11 in 10.0 mi WNW 6.9 mph - N/A   Clear
10:53 PM 48.0 °F - 36.0 °F 63% 30.12 in 10.0 mi Calm Calm - N/A   Clear
11:53 PM 46.0 °F 44.8 °F 33.1 °F 61% 30.10 in 10.0 mi NNE 3.5 mph - N/A   Clear